Location: Aragoneses
(41.0275°N, 4.3847°W)
Time: 18:09:47
(UTC+00:00)

ATLAS CENTAUR R/B - Visible Passes

Search period start: 07 March 2026 00:00
Search period end: 17 March 2026 00:00
Orbit: 284 x 316 km, 64.6° (Epoch: 7 March)

Date Brightness Start Highest point End Pass type
(mag) Time Alt. Az. Time Alt. Az. Time Alt. Az.
8 Mar 3.2 05:37:17 10° SSE 05:39:14 18° ESE 05:41:10 10° ENE visible
9 Mar 1.3 05:44:41 10° SSW 05:47:12 45° ESE 05:49:45 10° NE visible
10 Mar 0.1 05:51:53 10° SW 05:54:28 61° NW 05:57:02 10° NNE visible
11 Mar 3.6 04:28:24 10° ESE 04:28:24 10° ESE 04:28:54 10° E visible
11 Mar 1.3 05:58:50 10° WSW 06:00:58 25° NW 06:03:10 10° N visible
12 Mar 3.0 04:34:44 19° E 04:34:44 19° E 04:36:00 10° ENE visible
12 Mar 2.3 06:05:30 10° WNW 06:06:45 13° NW 06:08:00 10° NNW visible
13 Mar 2.6 04:40:06 22° NE 04:40:06 22° NE 04:41:11 10° NE visible
14 Mar 2.7 04:44:31 17° NNE 04:44:31 17° NNE 04:45:12 10° NNE visible
15 Mar 3.0 04:48:01 11° N 04:48:01 11° N 04:48:09 10° N visible
